Flag for Poland Weather past 2 weeks in Gorzów Wielkopolski, Poland

Now
58 °F

Fog.


Feels Like: 58 °F
Forecast: 50 / 71 °F
Wind: 3 mph from North

Location: Gorzow Wlkp


UV Index: 3 (Moderate)

Visibility: 4 mi


Pressure: 30.11 "Hg

Humidity: 96%

Dew point: 56 °F

Location of Gorzów WielkopolskiLocation

Historic Weather in Gorzów Wielkopolski

°F

Gorzów Wielkopolski temperature yesterday

Maximum temperature yesterday: 65 °F (at 3:00 PM)
Minimum temperature yesterday: 55 °F (at 7:00 AM)
Average temperature yesterday: 58 °F

Past Weeks' High & Low Weather Summary

 TemperatureHumidityPressure
High72 °F (Apr 22, 3:00 PM)100% (Apr 11, 5:00 AM)30.43 "Hg (Apr 11, 5:00 AM)
Low33 °F (Apr 11, 4:00 AM)31% (Apr 17, 3:00 PM)29.63 "Hg (Apr 14, 1:00 PM)
Average51 °F75%30.01 "Hg
* Reported Apr 9 8:00 PM — Apr 24 8:00 PM, Gorzów Wielkopolski, Weather by CustomWeather, © 2014

Note: Actual official high and low records may vary slightly from our data, if they occured in-between our weather recording intervals... More about our weather records

Advertising

Historic Weather Conditions — Data for Previous 24 hours

 ConditionsComfort  
Time TempWeatherWind HumidityBarometerVisibility
8:00 PM
Apr 24
58 °FFog.3 mph95%30.11 "Hg5 mi
7:00 PM58 °FOvercast.3 mph94%30.11 "Hg6 mi
6:00 PM58 °FPartly sunny.2 mph93%30.12 "Hg9 mi
5:00 PM58 °FPartly sunny.2 mph93%30.13 "Hg7 mi
4:00 PM57 °FOvercast.2 mph92%30.14 "Hg6 mi
3:00 PM57 °FOvercast.2 mph91%30.16 "Hg9 mi
2:00 PM60 °FOvercast.2 mph87%30.16 "Hg6 mi
1:00 PM59 °FOvercast.1 mph87%30.17 "Hg7 mi
12:00 PM55 °FOvercast.1 mph94%30.18 "Hg5 mi
11:00 AM53 °FSprinkles. Overcast.3 mph94%30.18 "Hg6 mi
10:00 AM52 °FSprinkles. Overcast.1 mph90%30.19 "Hg6 mi
9:00 AM53 °FOvercast.2 mph88%30.18 "Hg12 mi
8:00 AM53 °FOvercast.2 mph95%30.16 "Hg12 mi
7:00 AM53 °FOvercast.1 mph93%30.15 "Hg12 mi
6:00 AM54 °FOvercast.1 mph93%30.14 "Hg9 mi
5:00 AM54 °FOvercast.2 mph96%30.15 "Hg6 mi
4:00 AM54 °FOvercast.2 mph96%30.15 "Hg5 mi
3:00 AM55 °FLight rain. Overcast.2 mph96%30.14 "Hg5 mi
2:00 AM55 °FOvercast.2 mph96%30.14 "Hg6 mi
1:00 AM56 °FOvercast.3 mph94%30.14 "Hg6 mi
12:00 AM56 °FFog.3 mph97%30.14 "Hg4 mi
11:00 PM
Apr 23
55 °FFog.2 mph96%30.14 "Hg5 mi
10:00 PM56 °FOvercast.3 mph95%30.14 "Hg6 mi
9:00 PM58 °FLight rain. Overcast.2 mph94%30.13 "Hg6 mi
Weather by CustomWeather, © 2014

See weather overview